Location: Bouchavesnes-Bergen
(49.9859°N, 2.9203°E)
Time: 03:41:51
(UTC+00:00)

Envisat - Pass Details

Date: 07 February 2023
Orbit: 763 x 765 km, 98.2° (Epoch: 30 March)

Event Time Altitude Azimuth Distance (km) Brightness Sun altitude
Rises 03:12:11 0° 21° (NNE) 3,246 6.8 -38.5°
Reaches altitude 10° 03:14:44 10° 31° (NNE) 2,314 6.0 -38.1°
Enters shadow 03:17:17 24° 55° (NE) 1,545 5.0 -37.8°
